Find Starlink 11298

NORAD ID: 61211 Int'l Des: 2024-171 Owner: SPXS Country: US Constellation: starlink operational
LEOCIRCULAR

Current View

Loading 3D Globe...

About Starlink 11298

Starlink 11298 (NORAD 61211) is a starlink constellation satellite (v2 mini d2c) launched Sep 20, 2024 by SPXS of US. It operates in LEO, CIRCULAR orbit with a mass of 960.00 kg.

About Starlink 11298

Description loading...

Upcoming Passes

Passes for default location (London). Set your location on the main map for personalized predictions.

Altitude History

Loading altitude history...

Two-Line Element Set

1 61211U 24171M 26169.91779596 -.00000277 00000-0 25658-5 0 9991
2 61211 53.1598 37.5442 0000778 87.3891 272.7216 15.69704281100299
Epoch: Jun 18, 2026 • Age: 17 hours

Current Status

Altitude 364.7 km
Velocity 7.70 km/s
Sub-Earth Point 48.41°N, 19.46°E
Launch Date Sep 20, 2024
Age 1.7 years
Type internet

Technical Details

Classification Payload
Mass 960.00 kg
Dry Mass 910.00 kg
Total Mass 960.00 kg
Length 0.30 m
Diameter 4.10 m
Span 29.00 m
Shape Box + pan
Manufacturer SPXS
Bus Type Starlink V2MD
Phase Status In Orbit
Owner/State SPXS/US

Most Searched